W5CGC Weather Reports


Display with metric or nautical units.
time (UTC)temp
F
wind
direction
speed
MPH
gust
MPH
rain 1hr
in
rain 24hr
in
rain mn
in
humidity
%
barometer
mb
20190618164611 83 349 0.0 2.0 0.00 0.00 0.00 72 1011.9
20190618163108 82 47 0.0 1.0 0.00 0.00 0.00 74 1011.4
20190618161540 81 136 1.0 5.0 0.00 0.00 0.00 74 1011.6
20190618160031 80 172 0.0 2.0 0.00 0.00 0.00 77 1011.5
20190618154542 79 51 0.0 2.0 0.00 0.00 0.00 79 1011.5
20190618153018 78 190 2.0 8.0 0.00 0.00 0.00 79 1011.5
20190618151540 77 157 2.0 10.0 0.00 0.00 0.00 80 1011.3
20190618150033 76 180 3.0 10.0 0.00 0.00 0.00 81 1011.3
20190618144511 76 167 2.0 9.0 0.00 0.00 0.00 81 1011.9
20190618143008 77 168 0.0 4.0 0.00 0.00 0.00 81 1012.2
20190618141521 77 177 2.0 6.0 0.00 0.00 0.00 80 1011.9
20190618140019 77 204 0.0 2.0 0.00 0.00 0.00 81 1012.6
20190618134519 77 200 0.0 2.0 0.00 0.00 0.00 82 1012.8
20190618131659 74 205 0.0 1.0 0.00 0.00 0.00 89 1013.1
20190618130258 72 251 0.0 3.0 0.00 0.00 0.00 92 1013.2
20190618124656 71 149 0.0 0.0 0.00 0.00 0.00 92 1013.2
20190618123139 70 150 0.0 0.0 0.00 0.00 0.00 92 1013.5
20190618121637 69 150 0.0 2.0 0.00 0.00 0.00 91 1013.4
20190618120127 68 146 0.0 0.0 0.00 0.00 0.00 91 1013.4
20190618114708 68 146 0.0 0.0 0.00 0.00 0.00 91 1013.3
20190618113147 67 146 0.0 0.0 0.00 0.00 0.00 91 1012.8
20190618111600 67 146 0.0 0.0 0.00 0.00 0.00 91 1012.7
20190618110108 67 146 0.0 0.0 0.00 0.00 0.00 91 1012.9
20190618104705 67 146 0.0 0.0 0.00 0.00 0.00 91 1012.8
20190618103129 68 147 0.0 0.0 0.00 0.00 0.00 91 1012.6
20190618101655 68 146 0.0 0.0 0.00 0.00 0.00 91 1012.3
20190618100101 68 146 0.0 0.0 0.00 0.00 0.00 91 1012.2
20190618094633 68 146 0.0 0.0 0.00 0.00 0.00 90 1012.0
20190618093114 68 147 0.0 0.0 0.00 0.00 0.00 90 1012.3
20190618091606 68 146 0.0 0.0 0.00 0.00 0.00 90 1012.2
20190618090120 68 146 0.0 0.0 0.00 0.00 0.00 90 1012.1
20190618084608 69 146 0.0 0.0 0.00 0.00 0.00 90 1011.9
20190618083103 69 146 0.0 0.0 0.00 0.00 0.00 90 1012.0
20190618081605 69 146 0.0 0.0 0.00 0.00 0.00 89 1012.0
20190618080044 69 146 0.0 0.0 0.00 0.00 0.00 89 1011.9
20190618074558 69 146 0.0 0.0 0.00 0.00 0.00 88 1012.2
20190618073041 70 146 0.0 0.0 0.00 0.00 0.00 88 1012.3
20190618071531 70 146 0.0 0.0 0.00 0.00 0.00 87 1012.4
20190618070041 70 146 0.0 0.0 0.00 0.00 0.00 85 1012.4
20190618064523 70 146 0.0 0.0 0.00 0.00 0.00 85 1012.4
20190618063032 71 146 0.0 0.0 0.00 0.00 0.00 85 1012.5
20190618061531 71 146 0.0 0.0 0.00 0.00 0.00 85 1012.6
20190618060023 71 147 0.0 0.0 0.00 0.00 0.00 81 1012.6
20190618054545 71 147 0.0 0.0 0.00 0.00 0.00 81 1012.6
20190618053015 71 82 0.0 0.0 0.00 0.00 0.00 79 1012.8
20190618051522 72 82 0.0 0.0 0.00 0.00 0.00 78 1012.8
20190618050009 72 83 0.0 0.0 0.00 0.00 0.00 77 1012.8
20190618044515 72 82 0.0 0.0 0.00 0.00 0.00 75 1012.8
20190618043009 73 82 0.0 0.0 0.00 0.00 0.00 74 1012.6
20190618041505 73 82 0.0 0.0 0.00 0.00 0.00 76 1012.1
20190618040004 72 82 0.0 0.0 0.00 0.00 0.00 81 1012.0
20190618034515 72 100 0.0 0.0 0.00 0.00 0.00 77 1011.8
20190618033009 73 100 0.0 0.0 0.00 0.00 0.00 77 1011.5
20190618031508 73 100 0.0 0.0 0.00 0.00 0.00 77 1011.1
20190618030126 73 100 0.0 0.0 0.00 0.00 0.00 76 1011.0
20190618024752 74 100 0.0 0.0 0.00 0.00 0.00 74 1010.8
20190618023121 74 100 0.0 0.0 0.00 0.00 0.00 73 1010.6
20190618021651 75 100 0.0 0.0 0.00 0.00 0.00 71 1010.3
20190618020143 76 100 0.0 1.0 0.00 0.00 0.00 68 1010.2
20190618014658 76 92 0.0 1.0 0.00 0.00 0.00 67 1010.1
20190618013150 77 73 0.0 0.0 0.00 0.00 0.00 66 1010.0
20190618011701 78 73 0.0 0.0 0.00 0.00 0.00 65 1010.0
20190618010144 79 73 0.0 0.0 0.00 0.00 0.00 61 1010.3
20190618004612 81 73 0.0 0.0 0.00 0.00 0.00 59 1010.1
20190618003141 83 73 0.0 1.0 0.00 0.00 0.00 55 1010.1
20190618001630 83 345 0.0 1.0 0.00 0.00 0.00 54 1010.0
20190618000146 84 345 0.0 1.0 0.00 0.00 0.00 53 1010.0
20190617234626 85 345 0.0 1.0 0.00 0.00 0.00 52 1010.2
20190617233138 89 345 0.0 1.0 0.00 0.00 0.00 48 1010.2
20190617231607 88 345 0.0 1.0 0.00 0.00 0.00 46 1010.3
20190617230114 87 345 0.0 1.0 0.00 0.00 0.00 49 1010.5
20190617224555 89 41 0.0 1.0 0.00 0.06 0.00 47 1010.7
20190617223139 89 3 0.0 2.0 0.00 0.06 0.00 46 1011.0
20190617221556 88 33 0.0 1.0 0.00 0.06 0.00 47 1011.1
20190617220200 87 120 0.0 1.0 0.00 0.06 0.00 50 1011.3
20190617214643 86 13 0.0 2.0 0.00 0.13 0.00 53 1011.4
20190617213046 85 61 0.0 2.0 0.00 0.13 0.00 53 1011.5
20190617211716 85 15 0.0 2.0 0.00 0.13 0.00 53 1011.8
20190617210054 85 34 0.0 2.0 0.00 0.13 0.00 52 1011.9
20190617204537 85 43 0.0 2.0 0.00 1.67 0.00 54 1012.2
20190617203127 85 72 0.0 3.0 0.00 1.67 0.00 53 1012.5
20190617201543 85 16 0.0 2.0 0.00 1.67 0.00 53 1012.6
20190617200108 84 62 0.0 2.0 0.00 1.67 0.00 52 1012.7
20190617194619 84 67 0.0 2.0 0.00 1.67 0.00 53 1012.9
20190617193045 85 140 0.0 1.0 0.00 1.67 0.00 52 1012.9
20190617191549 83 75 0.0 2.0 0.00 1.67 0.00 64 1013.0
20190617190118 84 158 0.0 2.0 0.00 1.67 0.00 65 1013.2
20190617184552 83 316 0.0 2.0 0.00 1.67 0.00 69 1013.3
20190617183132 83 326 0.0 2.0 0.00 1.67 0.00 68 1013.4
20190617181526 82 281 1.0 3.0 0.00 1.67 0.00 70 1013.4
20190617180136 82 275 0.0 2.0 0.00 1.67 0.00 70 1013.5
20190617174513 80 17 0.0 2.0 0.00 1.67 0.00 70 1013.4
20190617173033 80 63 0.0 2.0 0.00 1.67 0.00 71 1013.2
20190617171533 79 49 0.0 2.0 0.00 1.67 0.00 73 1013.4
20190617170006 78 42 0.0 2.0 0.00 1.67 0.00 73 1013.5